Location: Campestrin
(46.4667°N, 11.7167°E)
Time: 16:55:49
(UTC+00:00)

Meteor 2-2 Rocket - Pass Details

Date: 18 April 2021
Orbit: 852 x 929 km, 81.3° (Epoch: 07 May)

Event Time Altitude Azimuth Distance (km) Brightness Sun altitude
Exits shadow 21:18:01 61° 80° (E) 993 4.3 -27.0°
Drops below altitude 10° 21:23:21 10° 17° (NNE) 2,524 7.2 -27.4°
Sets 21:25:48 0° 14° (NNE) 3,457 8.0 -27.6°
